Theta_e
303 307 312 316 321 323 326 327 327 327 325 325 325 324 322 321 321 321 318 312 312 308 306 305 302 299 297 296 293 291 290 290 287 285 287 287 287 287 287 287 288 286 287
299 300 301 304 310 316 322 325 325 324 322 324 325 324 322 321 319 318 311 310 309 304 302 301 298 296 294 293 291 288 288 289 288 284 285 286 286 286 286 285 287 287 286
300 300 300 301 304 306 310 314 320 324 321 318 320 320 320 317 314 314 312 309 308 306 301 300 296 294 291 291 289 287 287 288 287 284 284 285 285 285 282 283 284 284 286
300 299 299 299 301 302 305 306 307 311 312 311 312 313 311 311 311 309 308 306 305 302 300 298 295 293 291 289 288 287 286 284 284 284 283 282 282 283 281 280 280 282 282
299 298 298 298 298 299 301 303 303 303 305 307 306 305 305 306 304 302 301 302 299 296 295 294 293 291 290 291 288 286 285 284 284 284 282 281 281 281 281 281 280 281 280
298 297 296 295 295 295 295 296 295 295 296 297 297 298 298 298 299 299 299 298 296 294 291 292 289 287 289 291 290 290 288 285 284 284 282 282 282 282 282 281 280 279 277
296 294 292 291 291 290 290 291 292 292 291 292 292 292 292 292 296 296 296 295 293 293 290 287 286 287 288 287 290 290 289 290 288 285 284 283 282 282 282 281 281 279 279
291 290 290 289 289 290 290 291 291 290 289 289 290 290 290 290 294 294 292 291 290 290 288 287 287 286 286 286 286 285 285 286 286 286 285 284 284 284 283 282 281 279 279
289 289 288 287 286 289 288 289 288 287 287 287 286 287 287 287 293 292 290 287 286 286 286 286 286 285 287 288 285 283 283 283 287 287 287 287 288 287 285 283 280 278 276
288 288 287 286 287 287 288 287 285 285 285 285 285 286 286 286 292 291 288 286 285 284 286 285 286 285 288 288 284 283 281 282 283 283 284 286 287 286 287 283 281 278 277
287 287 285 284 285 287 286 284 285 285 284 285 285 285 286 287 288 290 288 285 285 284 284 283 284 287 288 288 286 284 283 284 284 283 281 281 281 281 281 282 282 282 277
282 281 279 278 283 286 286 285 285 285 285 284 284 283 284 285 287 289 289 288 287 285 284 283 284 288 288 289 286 286 286 285 283 281 280 280 280 280 280 280 280 279 279
277 276 276 276 284 285 285 285 284 285 285 283 283 282 282 284 286 289 289 288 287 284 284 284 286 288 288 288 288 287 285 284 282 280 280 280 280 280 279 274 273 272 272
274 276 278 276 284 284 284 284 285 285 284 283 284 283 282 283 284 285 286 285 285 285 285 285 286 286 287 285 284 286 285 284 283 282 282 280 278 276 275 275 272 270 268
275 277 277 277 283 283 282 284 283 284 286 285 285 285 283 282 284 286 286 285 284 284 283 283 283 283 282 282 282 283 283 283 282 282 280 277 277 276 274 273 271 267 270
275 275 274 275 279 280 281 281 286 287 288 288 288 286 285 287 288 288 288 287 287 286 282 281 280 281 281 281 281 281 281 281 281 281 279 278 276 275 274 271 270 270 270
273 273 273 273 274 275 273 274 278 281 285 288 288 288 287 287 288 288 289 288 288 287 282 282 283 281 281 281 281 280 280 281 281 280 277 277 275 273 272 271 271 270 266
271 272 271 271 271 270 271 270 270 274 275 278 284 286 286 287 287 288 288 288 285 286 285 283 283 282 281 281 280 280 280 279 277 276 276 275 274 273 270 269 270 269 268
273 271 269 269 269 270 269 269 270 275 280 281 280 283 284 287 287 288 288 285 284 283 284 284 283 282 282 281 281 280 280 276 275 275 273 273 272 270 269 270 270 269 268
273 273 278 280 277 278 275 274 274 278 280 281 281 281 282 282 282 283 284 285 284 284 283 283 283 283 282 281 280 278 277 275 273 272 272 271 271 270 270 269 269 268 268
265 267 268 276 275 276 276 274 274 276 276 273 273 277 283 280 280 281 281 281 282 282 283 283 283 283 281 279 277 275 274 273 273 272 272 271 270 269 270 270 268 268 268
264 264 264 262 261 263 261 262 262 263 263 264 263 265 278 269 272 275 275 275 277 279 280 280 280 277 277 275 274 273 272 272 271 270 270 269 267 268 268 267 267 267 266
262 263 262 260 259 260 261 259 260 259 259 258 258 260 260 260 259 260 261 263 264 265 266 269 270 270 269 269 270 271 271 269 269 269 268 268 267 267 267 267 266 265 265
260 261 261 257 257 256 257 259 260 260 261 260 260 259 259 259 261 261 260 259 261 264 264 263 265 268 266 265 266 267 268 268 268 269 269 268 267 266 266 265 265 264 264
260 258 259 258 256 256 256 255 258 257 261 262 262 261 260 260 260 259 259 257 258 258 259 260 259 259 259 260 262 262 263 268 266 266 265 266 264 263 263 263 263 262 263
257 256 256 257 258 256 257 256 257 259 259 259 259 258 258 257 257 256 257 255 256 258 258 256 256 257 257 256 258 263 264 267 265 265 261 261 261 261 261 261 261 262 261
Wind_Speed
6 6 6 7 8 8 13 15 15 14 13 14 16 16 16 15 14 15 13 11 12 10 8 11 9 8 6 4 3 3 3 4 4 1 2 4 4 6 3 3 3 1 1
6 6 8 7 7 7 11 13 11 12 10 13 14 16 16 17 15 16 15 13 15 14 12 10 10 7 9 6 4 5 4 3 5 5 3 3 3 3 2 2 1 2 2
6 6 7 7 7 7 6 6 7 11 9 7 9 12 13 13 13 14 15 15 15 14 15 16 15 13 9 8 6 6 5 3 3 4 3 2 1 3 2 1 0 3 2
6 6 7 7 7 6 6 5 4 4 6 7 6 7 8 10 11 11 13 11 11 12 15 14 14 16 15 14 10 10 8 6 4 4 2 1 1 2 2 1 1 1 3
7 7 8 7 6 5 5 5 5 5 5 5 7 6 6 7 7 9 9 12 12 11 10 11 13 12 18 17 10 10 9 5 6 4 3 2 2 2 3 3 1 1 2
7 8 6 5 4 4 4 3 3 3 4 4 5 7 8 6 11 16 14 12 12 14 14 10 8 10 10 15 11 14 13 11 8 5 4 3 4 3 3 3 2 0 2
7 6 5 4 4 3 2 3 3 4 2 3 4 4 5 3 10 14 14 8 8 13 8 8 8 8 12 10 14 14 11 10 6 7 7 5 4 6 6 4 3 3 3
5 4 4 5 5 4 4 5 4 3 5 4 5 5 5 4 13 14 12 7 8 7 10 11 7 12 9 12 11 8 6 6 6 4 4 5 4 6 6 5 5 3 2
3 5 5 5 3 4 4 5 4 3 4 5 3 4 4 2 12 16 13 8 6 7 6 9 11 8 15 19 12 10 6 3 5 7 8 8 9 10 8 4 4 3 2
4 5 4 4 3 4 5 4 1 1 1 1 2 1 3 3 10 13 10 7 8 8 8 7 11 11 19 19 10 10 8 6 5 2 3 6 8 5 7 5 4 4 3
4 5 5 6 6 4 3 2 1 1 2 3 4 1 4 7 8 14 9 2 6 6 6 6 6 17 19 19 13 8 6 8 10 5 4 2 2 3 4 4 5 6 6
3 1 1 1 2 3 5 5 4 5 2 1 2 3 1 3 10 16 14 10 11 6 6 6 4 17 18 18 12 12 10 9 5 5 5 6 6 5 5 4 4 5 5
5 4 3 2 1 1 3 3 3 5 5 4 3 2 1 1 3 12 14 18 14 5 7 7 12 15 18 15 16 14 10 6 6 6 7 7 6 4 3 2 1 1 2
3 3 2 2 3 2 2 1 1 2 2 3 3 3 3 2 3 4 5 6 10 7 9 8 10 11 10 6 6 10 7 7 8 7 7 4 3 2 3 3 3 2 1
3 2 3 2 1 3 2 2 1 2 2 3 3 4 6 6 5 10 9 7 6 8 8 4 3 5 6 7 6 7 6 6 8 7 6 4 4 5 4 3 3 2 5
3 2 2 2 2 2 2 2 11 4 4 3 4 4 1 7 17 18 17 15 15 17 4 5 7 8 8 6 7 7 7 8 8 7 6 7 7 7 6 4 3 5 7
4 2 2 3 2 3 1 2 2 3 9 6 3 6 7 6 15 17 18 18 18 17 6 7 6 7 7 7 7 8 8 8 7 7 8 7 6 6 5 5 5 6 4
4 6 3 1 2 2 3 3 3 2 1 1 1 3 4 6 9 12 12 11 6 12 7 6 6 6 6 7 7 7 7 5 7 7 7 6 6 6 5 6 7 8 7
5 4 3 3 3 2 2 1 0 1 1 1 0 2 2 7 9 11 14 6 7 7 7 7 6 6 6 6 6 6 7 6 6 6 7 7 7 7 7 7 7 9 8
5 6 5 4 3 4 3 3 3 3 2 1 1 2 2 2 3 4 5 5 5 5 4 6 6 6 7 7 6 6 5 5 6 6 6 6 6 6 7 7 7 7 8
3 4 5 4 4 3 4 4 3 3 3 3 3 4 5 1 2 2 2 3 4 5 5 6 5 5 3 3 4 4 5 5 5 6 6 6 6 7 7 7 7 7 7
5 4 4 4 2 4 3 3 3 3 4 4 4 5 14 4 4 4 4 4 4 5 5 4 4 2 3 4 4 4 5 5 5 5 6 6 6 6 6 7 7 7 7
5 5 5 4 3 3 4 3 2 2 2 1 1 2 2 1 1 2 3 4 3 4 4 3 2 2 2 2 1 2 4 5 5 6 6 6 7 7 6 7 7 6 6
5 5 5 4 4 3 3 3 3 3 3 3 3 3 3 2 2 3 3 3 3 4 3 3 3 3 2 2 2 3 3 3 2 5 7 5 5 6 6 6 6 7 6
4 4 4 3 4 3 3 3 2 2 2 2 2 2 2 3 3 3 3 3 3 3 4 3 2 4 4 5 5 6 4 7 4 4 3 5 6 7 6 5 5 3 6
4 3 3 2 2 2 2 2 2 2 2 2 2 2 3 2 3 3 3 3 2 3 4 3 4 7 6 5 6 7 7 8 6 6 3 2 2 2 3 4 6 4 4
Wind_Direction
246 246 238 237 228 220 224 222 221 220 210 207 206 205 207 209 204 204 199 184 185 174 174 177 169 154 158 161 143 132 135 132 122 147 99 171 161 166 164 128 139 109 359
253 249 243 239 241 247 240 236 231 230 220 215 211 209 205 201 193 200 190 184 180 174 173 169 163 156 155 149 158 145 148 129 127 148 166 164 179 150 141 93 53 13 352
243 245 253 251 244 245 251 268 243 229 227 221 214 212 208 200 194 196 199 195 189 179 173 175 170 161 163 157 161 150 148 138 133 132 142 110 120 114 86 12 283 325 316
231 235 249 254 257 263 265 258 267 267 209 188 200 206 206 205 208 208 188 192 191 178 175 174 169 176 172 163 172 162 158 144 130 111 97 130 123 115 102 158 307 316 295
218 222 229 230 239 257 262 266 274 275 255 208 189 201 203 204 197 185 202 180 175 176 180 175 175 181 175 167 164 161 144 131 139 128 115 147 164 138 177 184 180 260 291
221 233 243 238 231 230 237 249 284 283 270 242 223 208 199 198 191 197 183 180 181 181 177 183 167 140 149 141 136 159 164 155 155 146 137 196 178 159 156 159 167 202 274
226 232 236 229 230 238 265 254 256 277 279 257 227 200 220 228 194 182 184 179 203 173 165 140 154 156 147 144 141 143 151 159 147 140 171 188 175 172 145 159 181 195 226
239 232 231 220 223 220 233 246 243 237 245 232 229 206 200 208 184 177 168 164 151 167 150 144 167 135 150 139 132 131 138 147 150 141 176 177 167 155 152 163 177 202 293
255 255 260 242 243 235 236 242 239 223 218 205 208 201 189 187 188 165 152 133 125 124 131 127 140 164 158 149 141 139 129 125 170 169 192 192 186 179 177 148 191 173 258
269 256 232 224 202 221 234 236 255 280 308 63 74 135 126 133 177 176 153 139 146 150 148 154 167 159 165 154 142 147 159 170 169 178 208 214 219 220 221 208 179 194 205
253 228 197 189 193 193 166 130 123 89 123 147 139 151 146 148 153 162 154 131 144 144 153 152 151 164 170 158 150 158 163 139 193 198 193 195 199 204 212 203 200 199 204
329 358 320 201 174 164 166 145 143 139 149 143 131 100 344 166 159 163 157 136 143 144 141 129 158 164 176 170 159 169 168 166 179 188 198 212 215 217 216 207 210 204 208
16 5 1 331 276 160 154 173 155 158 162 157 154 133 103 313 142 157 145 137 135 112 130 162 167 175 184 178 175 177 184 187 186 201 216 224 209 207 184 142 176 198 249
28 18 31 27 358 18 18 42 122 182 161 163 163 163 125 119 141 123 119 114 127 124 153 165 176 175 177 175 159 192 201 199 202 216 223 210 153 167 190 174 181 188 186
78 59 48 64 25 24 26 358 344 305 208 191 197 171 159 170 173 153 155 156 149 146 123 130 152 169 193 193 189 199 202 192 208 220 212 186 196 189 200 179 178 177 216
106 81 112 119 121 120 95 31 25 344 254 240 196 174 244 182 173 181 181 174 166 156 121 174 193 200 206 195 203 206 207 209 217 215 209 209 211 204 207 193 173 194 230
98 106 119 117 126 122 116 141 132 6 35 37 216 208 197 206 196 191 189 185 185 173 202 208 207 200 208 207 210 209 211 210 205 208 211 214 212 210 193 206 206 208 223
68 62 56 51 106 143 160 177 149 173 163 312 2 158 174 179 189 206 205 198 210 218 222 222 218 214 210 208 209 217 225 205 195 204 208 207 203 201 191 212 209 216 224
37 40 44 47 32 34 55 61 102 176 241 309 318 255 221 215 222 220 215 217 216 219 228 231 230 228 223 217 215 217 210 201 199 200 209 204 200 194 210 212 212 213 217
61 42 49 70 53 51 45 29 11 355 339 320 329 319 344 201 210 220 229 236 236 240 235 240 239 235 230 223 214 208 212 209 203 211 217 212 206 198 216 213 213 219 218
88 71 63 65 58 38 47 62 36 23 21 8 351 345 325 255 296 285 260 248 259 268 268 263 257 250 242 219 209 205 213 214 215 220 221 215 206 210 212 217 218 218 220
91 87 72 75 76 66 69 66 55 59 39 22 348 351 356 15 8 347 334 342 345 333 327 322 298 246 217 208 208 212 220 226 219 217 217 210 204 209 209 213 214 218 216
92 88 77 75 71 64 62 47 61 76 78 46 1 355 30 357 340 349 318 321 333 330 322 330 342 320 338 323 296 240 240 234 226 213 219 212 213 214 212 217 213 213 212
86 93 95 84 74 54 60 54 27 18 29 24 14 359 360 358 333 325 312 307 323 323 321 318 310 304 318 273 250 243 252 258 205 214 217 213 210 202 205 209 204 208 213
72 75 76 85 84 81 61 39 31 359 3 13 350 350 332 336 333 320 310 315 318 318 312 314 311 304 294 288 283 273 265 271 257 218 210 212 202 186 202 206 200 202 205
71 67 73 74 71 71 66 48 342 347 343 330 314 315 306 299 282 283 291 297 298 301 309 298 297 294 292 288 288 288 271 268 257 230 193 165 171 190 192 204 201 194 182